Regional Weather Roundup
Issued by NWS

Home | Current Version | Previous Version | Graphics & Text | Print | Product List | Glossary On
Versions: 1 2 3 4 5 6 7 8 9 10 11 12 13 14 15 16 17 18 19 20 21 22 23 24 25 26 27 28 29 30 31 32 33 34 35 36 37 38 39 40 41 42 43 44 45 46 47 48 49 50
000
ASUS43 KLOT 261458
RWRIL

ILLINOIS REGIONAL WEATHER ROUNDUP
NATIONAL WEATHER SERVICE CHICAGO/ROMEOVILLE IL
900 AM CST WED NOV 26 2014

NOTE: "FAIR" INDICATES FEW OR NO CLOUDS BELOW 12,000 FEET WITH NO
SIGNIFICANT WEATHER AND/OR OBSTRUCTIONS TO VISIBILITY.

* THESE STATIONS ARE NOT UNDER NWS QUALITY CONTROL. THEY ALSO MAY NOT
  REPORT WEATHER SUCH AS PRECIPITATION OR FOG.

ILZ001-002-007-009-015-016-024-261600-
NORTHWEST ILLINOIS

CITY           SKY/WX    TMP DP  RH WIND       PRES   REMARKS
MOLINE         SUNNY     24  20  84 E14       30.06S WCI  12
$$

ILZ003-004-008-010-011-017-018-261600-
NORTH CENTRAL ILLINOIS

CITY           SKY/WX    TMP DP  RH WIND       PRES   REMARKS
ROCKFORD       NOT AVBL
$$

ILZ005-006-012>014-019>023-261600-
NORTHEAST ILLINOIS

CITY           SKY/WX    TMP DP  RH WIND       PRES   REMARKS
CHICAGO-OHARE  CLOUDY    22  18  85 CALM      30.15S FOG
CHICAGO-MIDWAY CLOUDY    26  20  77 SE10      30.16S WCI  16
AURORA         CLOUDY    25  20  81 E9        30.15S HAZE    WCI  15
WAUKEGAN       MOSUNNY   19  17  92 VRB3      30.15S FOG
DUPAGE AIRPORT CLOUDY    22  19  89 S7        30.14S FOG     WCI  13
WHEELING       CLOUDY    22  18  85 CALM      30.17F FOG
NORTHERLY ISL    N/A     26  21  81 SE13        N/A  WCI  15
$$

LMZ740>746-261600-
SOUTHERN LAKE MICHIGAN

STATION/POSITION SKY/WX   TEMP    WIND        PRES    VSBY  WAVE
                          AIR SEA DIR/SP/G                  HT/PER
                          (F)     (DEG/KT/KT) (MB)    (MI)  (FT/S)
SOUTHERN BUOY              31 42  180/  6/  8 1021.8F         1/ 3
WAUKEGAN HARBOR            20     280/  5/  6   N/A
HARRISON CRIB              27     140/  9/ 13   N/A
BURNHAM HARBOR             27     130/ 10       N/A
CALUMET HARBOR             24     140/  5/  8 1020.3R
MICHIGAN CITY              24     100/  7/ 11   N/A
$$

ILZ025>027-034>036-040-047-049-050-058-095>099-261600-
WEST-CENTRAL ILLINOIS

CITY           SKY/WX    TMP DP  RH WIND       PRES   REMARKS
$$

ILZ028>032-037-038-041>044-048-051>054-059>061-261600-
CENTRAL ILLINOIS

CITY           SKY/WX    TMP DP  RH WIND       PRES   REMARKS
DECATUR        MOSUNNY   27  25  93 SE10      30.12S WCI  17
PEORIA         NOT AVBL
SPRINGFIELD    MOSUNNY   30  26  85 SE12      30.09S WCI  20
TAYLORVILLE    NOT AVBL
$$

ILZ033-039-045-046-055>057-062-063-261600-
EAST-CENTRAL ILLINOIS

CITY           SKY/WX    TMP DP  RH WIND       PRES   REMARKS
CHAMPAIGN      PTSUNNY   25  23  92 SE13      30.14R WCI  14
MATTOON        MOSUNNY   26  23  88 SE9       30.13S WCI  17
$$

ILZ079-100>102-261600-
SOUTHWEST ILLINOIS

CITY           SKY/WX    TMP DP  RH WIND       PRES   REMARKS
ALTON          PTSUNNY   30  28  93 SE14      30.07F WCI  20
$$

ILZ064>066-069>071-074>076-080>082-084>086-088>090-092>094-261600-
SOUTH-CENTRAL ILLINOIS

CITY           SKY/WX    TMP DP  RH WIND       PRES   REMARKS
CARBONDALE     MOSUNNY   31  27  85 SE7       30.13R WCI  24
MARION         PTSUNNY   32  28  86 SE9       30.14S WCI  24
$$

ILZ067-068-072-073-078-083-087-091-261600-
SOUTHEAST ILLINOIS

CITY           SKY/WX    TMP DP  RH WIND       PRES   REMARKS
$$

ABBREVIATIONS USED IN REMARKS
   TC - TEMPERATURE IN CELSIUS
  WCI - WIND CHILL INDEX
   HX - HEAT INDEX
  VSB - VISIBILITY
$$



USA.gov is the U.S. government's official web portal to all federal, state and local government web resources and services.